[[{"header":{"parameterUnit":"m.s-1","parameterCategory":1,"la1":30.2991,"la2":30.254,"lo1":-89.0895,"lo2":-89.0444,"dy":0.0017,"dx":0.0017,"nx":28,"ny":28,"refTime":"2026-01-01T03:00:00:Z","depth":0,"parameterNumber":2,"parameterNumberName":"U-component_of_WINDS"},"data":[0,0,0,0,0,0,0,0,0,0,0,0,0,0,0,0,0,0,0,0,0,0,0,0,0,0,0,0,0,0,0,0,0,0,0,0,0,0,0,0,0,0,0,0,0,0,0,0,0,0,0,0,0,0,0,0,0,0,2.1292,2.1294,0,2.1513,2.1516,2.1518,2.1552,2.155,2.1548,2.1546,2.1779,2.1787,2.1795,0,0,0,0,0,0,0,0,0,0,0,0,0,2.0902,2.0909,2.1291,2.1294,2.1297,2.1513,2.1516,2.1519,2.1552,2.155,2.1547,2.1545,2.1776,2.1786,2.1795,0,0,0,0,0,0,0,0,0,0,0,0,0,2.1092,2.0911,2.1291,2.1339,2.1346,2.1512,2.1516,2.152,2.1553,2.155,2.1547,2.1544,2.1773,2.1785,2.1797,2.1932,0,0,2.1834,2.1839,0,0,0,0,0,0,0,0,2.1081,2.1106,2.1329,2.1336,2.1344,2.1502,2.1464,2.1658,2.1553,2.1474,2.1546,2.1542,2.1689,2.1708,2.1757,2.1943,2.1953,2.1835,2.1842,2.1847,2.1851,0,0,0,0,0,0,0,2.1068,2.1097,2.1379,2.1333,2.1342,2.1352,2.1375,2.1501,2.1596,2.1481,2.1484,2.1509,2.1693,2.1745,2.1762,2.1956,2.1835,2.1845,2.1853,2.1858,2.2266,2.2269,0,0,0,0,0,0,2.1045,2.1086,2.1372,2.1386,2.1202,2.1361,2.1388,2.1454,2.1595,2.1613,2.1512,2.151,2.1726,2.1748,2.1771,2.1938,2.1847,2.1859,2.1866,2.2262,2.2266,2.227,0,0,0,0,0,0,2.1037,2.1071,2.1363,2.1237,2.1275,2.1371,2.1445,2.146,2.1512,2.1618,2.1636,2.1547,2.1724,2.1754,2.1891,2.1947,2.1864,2.1875,2.2258,2.2263,2.2268,2.2274,0,0,0,0,0,0,2.1025,2.1067,2.1118,2.1238,2.1281,2.1478,2.1449,2.1467,2.1532,2.1532,2.1656,2.1674,2.1724,2.1873,2.1903,2.1962,2.1885,2.2253,2.226,2.2267,2.2269,2.2279,2.2287,0,0,0,0,0,2.1011,2.1112,2.1121,2.1155,2.1347,2.1481,2.1507,2.1561,2.1536,2.1589,2.1658,2.167,2.1936,2.1887,2.1921,2.1984,2.225,2.2258,2.2266,2.2265,2.2277,2.2287,0,0,0,0,0,0,2.0999,2.1129,2.1139,2.1281,2.137,2.1487,2.1555,2.1572,2.167,2.1666,2.1732,2.1759,2.1894,2.1953,2.1896,2.2123,2.2091,2.2106,2.2079,2.2091,2.2099,2.2082,2.1895,0,0,0,0,0,2.1012,2.1109,2.1218,2.1333,2.1376,2.1458,2.1519,2.1553,2.1648,2.1686,2.1764,2.1858,2.1963,2.203,2.2133,2.2278,2.2306,2.2339,2.2348,2.2354,2.2367,2.2448,2.2464,2.2297,2.2296,2.2296,0,0,2.1041,2.1124,2.1182,2.1332,2.1405,2.1505,2.1489,2.1596,2.1671,2.1703,2.1837,2.1898,2.2007,2.2149,2.2215,2.2202,2.2419,2.2365,2.2369,2.2378,2.2458,2.2474,2.2488,2.2302,2.2301,2.23,0,0,2.1145,2.1218,2.1321,2.1394,2.1503,2.1557,2.1581,2.1696,2.1737,2.1872,2.1898,2.199,2.2169,2.2245,2.2307,2.2441,2.2456,2.2473,2.2519,2.2598,2.2611,2.2623,2.267,2.2686,2.2485,2.2485,2.2485,0,2.1168,2.1318,2.1372,2.1478,2.1544,2.1575,2.1681,2.175,2.1888,2.1933,2.1917,2.2142,2.2217,2.2378,2.241,2.246,2.2491,2.2458,2.2604,2.2617,2.2629,2.2675,2.2692,2.2486,2.2486,2.2486,2.2486,0,2.134,2.1444,2.1515,2.1645,2.1719,2.1824,2.1896,2.1965,2.1993,2.2049,2.2187,2.2279,2.24,2.2441,2.2471,2.2606,2.2595,2.2591,2.256,2.2645,2.2689,2.2707,2.2488,2.2487,2.2487,2.2487,0,0,2.1441,2.16,2.1625,2.1684,2.1807,2.189,2.1997,2.2114,2.2172,2.2267,2.2359,2.251,2.2506,2.2577,2.2616,2.2685,2.2784,2.2673,2.2676,2.2689,2.294,2.2941,2.296,2.2795,2.2799,2.2802,2.293,0,2.1558,2.1748,2.1801,2.1962,2.2059,2.2091,2.2185,2.2272,2.2327,2.2419,2.2482,2.2587,2.2575,2.2618,2.2688,2.2757,2.2835,2.2749,2.2883,2.2887,2.2853,2.2984,2.2986,2.3102,2.2948,2.2951,2.2953,0,2.172,2.1816,2.1986,2.2097,2.2139,2.2222,2.2334,2.2421,2.2521,2.2557,2.2635,2.2668,2.2783,2.2746,2.2906,2.2846,2.2905,2.2947,2.2953,2.2967,2.2924,2.3,2.3141,2.3157,2.2981,2.2979,2.2977,0,2.1775,2.1947,2.2071,2.2121,2.2254,2.2311,2.237,2.2466,2.2533,2.2632,2.2676,2.2787,2.2848,2.2934,2.2997,2.2965,2.3152,2.3121,2.3185,2.3184,2.3222,2.3219,2.3373,2.3262,2.3261,2.3261,2.3261,0,2.19,2.2003,2.2097,2.2173,2.229,2.2351,2.2465,2.2525,2.2611,2.2701,2.2737,2.2821,2.2898,2.2993,2.3043,2.3168,2.3196,2.3229,2.3241,2.3225,2.322,2.3263,2.3256,2.3266,2.3265,2.3264,2.3263,0,2.1981,2.2048,2.2185,2.2299,2.233,2.2411,2.251,2.2586,2.2643,2.2756,2.2786,2.2877,2.299,2.3061,2.3206,2.324,2.3377,2.3387,2.3342,2.3347,2.3408,2.3401,2.3594,2.3623,2.3493,2.3494,2.3495,0,2.2055,2.2134,2.2257,2.2318,2.2376,2.2476,2.2544,2.2608,2.2677,2.2797,2.2859,2.2975,2.307,2.3251,2.333,2.3442,2.3454,2.3514,2.3471,2.3453,2.3454,2.3448,2.3456,2.3521,2.3522,2.3523,2.3523,0,2.218,2.2209,2.2304,2.2412,2.2491,2.258,2.2668,2.2717,2.2797,2.2874,2.2989,2.3063,2.321,2.3325,2.3443,2.3506,2.3529,2.3537,2.3557,2.3541,2.3512,2.3528,2.336,2.3532,2.3531,2.353,2.353,2.3529,2.2259,2.2331,2.2428,2.2533,2.2606,2.2688,2.2765,2.2831,2.2927,2.305,2.3084,2.3204,2.3304,2.3465,2.353,2.3627,2.3619,2.3649,2.3656,2.3663,2.3663,2.3497,2.3649,2.3649,2.3649,2.3649,2.3649,0,2.2384,2.2448,2.2545,2.2666,2.275,2.2762,2.2861,2.293,2.3035,2.3125,2.3218,2.3351,2.3463,2.3551,2.3667,2.3727,2.3741,2.3755,2.3751,2.3765,2.3664,2.3634,2.3742,2.3742,2.3742,2.3742,2.3742,2.3742,2.2459,2.2581,2.2622,2.2782,2.2846,2.2963,2.3018,2.3094,2.3166,2.3312,2.3404,2.3461,2.3551,2.3673,2.3777,2.38,2.3841,2.3853,2.3879,2.3782,2.3772,2.3762,2.3734,2.3862,2.3862,2.3971,2.3972,2.3973]},{"header":{"parameterUnit":"m.s-1","parameterCategory":1,"la1":30.2991,"la2":30.254,"lo1":-89.0895,"lo2":-89.0444,"dy":0.0017,"dx":0.0017,"nx":28,"ny":28,"refTime":"2026-01-01T03:00:00:Z","depth":0,"parameterNumber":3,"parameterNumberName":"V-component_of_WINDS"},"data":[0,0,0,0,0,0,0,0,0,0,0,0,0,0,0,0,0,0,0,0,0,0,0,0,0,0,0,0,0,0,0,0,0,0,0,0,0,0,0,0,0,0,0,0,0,0,0,0,0,0,0,0,0,0,0,0,0,0,2.0298,2.0299,0,2.034,2.034,2.0341,2.0317,2.0316,2.0315,2.0314,2.0356,2.0358,2.036,0,0,0,0,0,0,0,0,0,0,0,0,0,2.0197,2.0199,2.0298,2.0299,2.0299,2.034,2.034,2.0341,2.0318,2.0316,2.0315,2.0313,2.0355,2.0358,2.036,0,0,0,0,0,0,0,0,0,0,0,0,0,2.024,2.02,2.0298,2.0293,2.0292,2.034,2.034,2.0341,2.0318,2.0316,2.0314,2.0313,2.0354,2.0357,2.0361,2.0415,0,0,2.0371,2.0372,0,0,0,0,0,0,0,0,2.0238,2.0244,2.0293,2.0293,2.0293,2.0322,2.032,2.0366,2.0318,2.0308,2.0314,2.0312,2.0346,2.035,2.0361,2.0417,2.0419,2.0371,2.0373,2.0374,2.0375,0,0,0,0,0,0,0,2.0235,2.0242,2.0315,2.0294,2.0294,2.0287,2.0292,2.0329,2.0336,2.0309,2.0307,2.0313,2.0345,2.0358,2.0362,2.042,2.0371,2.0374,2.0376,2.0377,2.0522,2.0524,0,0,0,0,0,0,2.0232,2.024,2.0313,2.0316,2.0261,2.0291,2.0295,2.0314,2.0336,2.0337,2.0314,2.0311,2.0353,2.0358,2.0363,2.0428,2.0374,2.0377,2.0379,2.052,2.0522,2.0524,0,0,0,0,0,0,2.023,2.0239,2.0312,2.0277,2.0286,2.0294,2.0316,2.0316,2.0329,2.034,2.0341,2.0326,2.0352,2.0359,2.0402,2.0429,2.0379,2.0382,2.0518,2.0521,2.0523,2.0559,0,0,0,0,0,0,2.0228,2.0239,2.026,2.0278,2.0288,2.0351,2.0317,2.0318,2.0334,2.0331,2.0351,2.0352,2.0351,2.0398,2.0406,2.0433,2.0384,2.0515,2.0519,2.0522,2.0556,2.0563,2.0569,0,0,0,0,0,2.0224,2.0268,2.0261,2.027,2.0315,2.0352,2.0358,2.0356,2.0337,2.0358,2.0365,2.0352,2.0425,2.0402,2.0411,2.044,2.0514,2.0518,2.0522,2.0553,2.0561,2.0569,0,0,0,0,0,0,2.0253,2.0271,2.0263,2.0314,2.0332,2.0348,2.0375,2.0366,2.0389,2.0385,2.0381,2.0386,2.0432,2.044,2.0414,2.0494,2.0466,2.0473,2.0486,2.0495,2.0502,2.0498,2.0387,0,0,0,0,0,2.0265,2.0295,2.0308,2.0352,2.0362,2.0367,2.0383,2.038,2.0398,2.0405,2.0415,2.0433,2.046,2.0478,2.0504,2.0557,2.056,2.0581,2.0587,2.0593,2.0598,2.0626,2.0635,2.0538,2.0538,2.0538,0,0,2.0291,2.0304,2.0323,2.0358,2.0372,2.0402,2.0373,2.0406,2.0428,2.041,2.0452,2.046,2.048,2.0528,2.055,2.0537,2.0626,2.0598,2.0603,2.0605,2.0632,2.0641,2.0649,2.0541,2.0541,2.054,0,0,2.0353,2.0367,2.0405,2.0418,2.0439,2.0442,2.0451,2.0469,2.0474,2.0516,2.0503,2.0528,2.0575,2.0589,2.0603,2.067,2.0658,2.0678,2.0713,2.0741,2.0748,2.0755,2.0779,2.0787,2.0683,2.0684,2.0684,0,2.0383,2.0428,2.0425,2.0459,2.0475,2.046,2.0498,2.0512,2.0539,2.055,2.0535,2.0593,2.0605,2.0656,2.0673,2.0684,2.0694,2.0676,2.0748,2.0754,2.0761,2.0783,2.0792,2.0686,2.0686,2.0685,2.0685,0,2.0463,2.0494,2.0522,2.0549,2.0568,2.0604,2.0606,2.0626,2.0621,2.0625,2.0668,2.0682,2.071,2.0722,2.0717,2.0772,2.0763,2.0748,2.072,2.0772,2.0793,2.0802,2.0689,2.0688,2.0688,2.0687,0,0,2.0544,2.057,2.058,2.0592,2.0613,2.0637,2.0672,2.0699,2.0716,2.0735,2.0764,2.0804,2.0789,2.0805,2.0802,2.0826,2.0877,2.0807,2.0808,2.0819,2.0938,2.0949,2.0959,2.087,2.0871,2.0873,2.0936,0,2.0608,2.0669,2.0667,2.0724,2.0753,2.0739,2.0769,2.0785,2.079,2.0815,2.082,2.0848,2.0827,2.0836,2.086,2.0866,2.0901,2.0862,2.0896,2.0897,2.0891,2.097,2.0982,2.1041,2.0944,2.0946,2.0947,0,2.069,2.0712,2.0772,2.0789,2.08,2.0828,2.0852,2.0876,2.0894,2.0896,2.0913,2.0906,2.094,2.0912,2.0959,2.0932,2.0946,2.0952,2.0954,2.0957,2.0925,2.0975,2.106,2.1069,2.096,2.0959,2.0958,0,2.0743,2.0788,2.0829,2.084,2.0861,2.088,2.0889,2.0905,2.0922,2.0943,2.0954,2.0979,2.0992,2.1012,2.1012,2.0991,2.1059,2.1031,2.1061,2.1061,2.1076,2.1075,2.1165,2.1086,2.1086,2.1086,2.1085,0,2.0813,2.085,2.0853,2.0879,2.0919,2.0917,2.0957,2.0965,2.0979,2.1005,2.0995,2.1019,2.1018,2.1043,2.1043,2.1082,2.1088,2.109,2.109,2.1091,2.1091,2.11,2.1095,2.1088,2.1087,2.1087,2.1087,0,2.0879,2.0883,2.0927,2.0943,2.0948,2.0977,2.099,2.1014,2.1018,2.1052,2.1059,2.1065,2.1094,2.1096,2.1129,2.1129,2.1176,2.1171,2.117,2.1169,2.1199,2.1196,2.1297,2.131,2.1223,2.1224,2.1225,0,2.0924,2.0952,2.0971,2.0988,2.0999,2.1026,2.1043,2.1041,2.1059,2.1081,2.1102,2.113,2.1152,2.1198,2.1205,2.123,2.1226,2.126,2.1229,2.123,2.1226,2.1224,2.1226,2.1265,2.1266,2.1267,2.1268,0,2.1003,2.1003,2.1028,2.1053,2.1073,2.1093,2.1111,2.1126,2.1126,2.1147,2.1176,2.1193,2.1227,2.1254,2.1278,2.1287,2.1278,2.1277,2.1285,2.1287,2.1285,2.1286,2.1186,2.1275,2.1274,2.1274,2.1273,2.1273,2.1059,2.1083,2.11,2.1128,2.1142,2.1159,2.1182,2.1189,2.1214,2.1241,2.1239,2.1271,2.1287,2.1319,2.133,2.1355,2.1343,2.1355,2.1358,2.1361,2.1364,2.1281,2.1359,2.1359,2.1359,2.1359,2.1359,0,2.1137,2.1147,2.1173,2.1199,2.122,2.1209,2.1229,2.1248,2.1276,2.1293,2.1315,2.1348,2.1374,2.1384,2.1409,2.1427,2.1423,2.1434,2.1432,2.1434,2.1373,2.1363,2.1437,2.1437,2.1437,2.1437,2.1437,2.1437,2.118,2.122,2.1222,2.1269,2.1278,2.131,2.1322,2.1338,2.1351,2.1389,2.1411,2.1417,2.143,2.1456,2.148,2.1482,2.1491,2.1504,2.1504,2.1447,2.1439,2.1431,2.1422,2.1506,2.1506,2.1563,2.1563,2.1564]}]]